Volver al catálogo

STARLINK-37470

ActivoComunicacionesSSO
NORAD 68820·PAYLOAD·🇺🇸 United States

Lanzado Apr 23, 2026 desde Vandenberg Space Force Base

Loading…

Próximos Pases (próximas 24 horas)

TLE

ActualizadoSource: CelesTrak SupGP

Época: Sep 14, 2026, 23:02 UTC

1 68820C 26089U   26257.96020833  .00086604  00000+0  26891-2 0  2570
2 68820  97.2849 103.8483 0002221  92.2832 247.7216 15.33385789    17

Sigue STARLINK-37470 en tiempo real con AllMySat

Download on the App Store